Home   Weather   Nienburg (Weser)   Past weeks
Flag for Germany

Past Weather in Nienburg (Weser), Lower Saxony, Germany — Yesterday and Last 2 Weeks

Now
57 °F

Rain. Fog.


Feels Like: 55 °F
Forecast: 61 / 55 °F
Wind: 9 mph from Northwest

Location: Wunstorf Airport

Current Time: Oct 16, 2019 at 2:44:01 am

Latest Report: Oct 16, 2019 at 1:20 am


Visibility: 2 mi

Pressure: 29.71 "Hg

Humidity: 100%

Dew Point: 57 °F

Location of Nienburg (Weser)Location

Past Weather in Nienburg (Weser) — Graph

°F

Nienburg (Weser) Temperature Yesterday

Maximum temperature yesterday: 72 °F (at 3:20 pm)
Minimum temperature yesterday: 55 °F (at 7:20 am)
Average temperature yesterday: 62 °F

High & Low Weather Summary for the Past Weeks

 TemperatureHumidityPressure
High72 °F (Oct 13, 4:20 pm)100% (Oct 1, 8:01 am)30.15 "Hg (Oct 1, 8:01 am)
Low36 °F (Oct 7, 6:20 am)51% (Oct 5, 4:20 pm)29.45 "Hg (Oct 1, 2:20 pm)
Average54 °F84%29.80 "Hg
* Reported Oct 1 1:20 am — Oct 16 1:20 am, Nienburg (Weser). Weather by CustomWeather, © 2019

Note: Actual official high and low records may vary slightly from our data, if they occured in-between our weather recording intervals... More about our weather records

Advertising

Nienburg (Weser) Weather History for the Previous 24 Hours

Scroll right to see more
 ConditionsComfort  
Time TempWeatherWind HumidityBarometerVisibility
1:20 am
Wed, Oct 16
57 °FRain. Fog.9 mph100%29.71 "Hg2 mi
1:00 am59 °FRain. Fog.8 mph94%29.71 "Hg2 mi
12:20 am59 °FThunderstorms. Partly cloudy.12 mph94%29.71 "Hg2 mi
12:09 am59 °FThunderstorms. Mostly cloudy.14 mph94%29.71 "Hg2 mi
11:37 pm
Tue, Oct 15
59 °FStrong thunderstorms. Mostly cloudy.20 mph94%29.68 "Hg1 mi
11:28 pm61 °FThunderstorms. Partly cloudy.15 mph88%29.71 "Hg1 mi
10:20 pm59 °FPassing clouds.6 mph94%29.68 "HgN/A
9:58 pm61 °FPartly cloudy.6 mph88%29.68 "HgN/A
9:20 pm61 °FPartly cloudy.2 mph88%29.68 "HgN/A
8:20 pm61 °FPassing clouds.3 mph94%29.68 "HgN/A
7:20 pm63 °FPartly cloudy.1 mph88%29.68 "HgN/A
6:20 pm64 °FBroken clouds.2 mph83%29.68 "HgN/A
5:20 pm66 °FBroken clouds.5 mph73%29.68 "HgN/A
4:20 pm70 °FPartly sunny.5 mph64%29.68 "HgN/A
3:20 pm72 °FPartly sunny.5 mph61%29.68 "HgN/A
2:20 pm70 °FPartly sunny.7 mph69%29.68 "HgN/A
1:20 pm70 °FPartly sunny.8 mph64%29.68 "HgN/A
12:20 pm70 °FPartly sunny.5 mph69%29.71 "HgN/A
11:20 am66 °FPartly sunny.2 mph73%29.71 "HgN/A
10:20 am63 °FPartly sunny.6 mph83%29.71 "HgN/A
9:20 am59 °FPartly sunny.6 mph88%29.71 "HgN/A
8:20 am55 °FPartly sunny.5 mph94%29.71 "HgN/A
7:20 am55 °FPassing clouds.6 mph94%29.68 "HgN/A
6:20 am57 °FPassing clouds.9 mph88%29.71 "HgN/A
5:20 am57 °FPassing clouds.9 mph88%29.71 "HgN/A
4:20 am57 °FPassing clouds.7 mph94%29.71 "HgN/A
3:20 am59 °FPassing clouds.9 mph88%29.74 "HgN/A
2:20 am59 °FPassing clouds.8 mph94%29.74 "HgN/A
Weather by CustomWeather, © 2019

See weather overview